Location: Del Amo
(33.8464°N, 118.2104°W)
Time: 18:38:59
(UTC+00:00)

S-56A Canister/Altair - Pass Details

Date: 13 September 2024
Orbit: 636 x 2487 km, 38.9° (Epoch: 14 October)

Event Time Altitude Azimuth Distance (km) Brightness Sun altitude
Rises 11:10:46 0° 280° (W) 5,440 - -29.5°
Reaches altitude 10° 11:15:39 10° 264° (W) 4,711 - -28.6°
Maximum altitude 11:23:54 19° 226° (SW) 4,311 - -27.1°
Exits shadow 11:29:52 15° 199° (SSW) 4,744 11.1 -26.0°
Drops below altitude 10° 11:32:53 10° 188° (S) 5,137 11.4 -25.4°
Sets 11:38:43 0° 173° (S) 6,093 12.0 -24.3°
